Wind_Speed
35 39 42 42 43 44 46 48 49 49 49 50 50 50 51 51 51 51 51 51 51 50 49 48 47 47 46 45 44 44 43 42 42 41 40 38 38 37 36 36 35 34 33 33
33 35 37 40 41 43 44 45 47 48 48 49 49 49 50 50 51 50 51 51 51 50 49 48 48 47 46 46 45 44 43 42 42 41 41 40 39 38 37 36 36 35 35 34
30 31 34 37 39 42 44 44 44 46 47 48 48 49 49 49 50 50 50 50 51 51 50 49 48 48 47 47 46 45 44 43 42 42 41 41 40 39 38 37 37 36 36 36
26 29 31 34 36 38 40 42 43 43 45 46 48 50 48 49 50 50 50 50 50 50 50 50 50 49 49 48 47 46 45 44 43 42 41 41 40 40 40 39 38 37 37 36
24 28 30 32 35 36 37 38 40 41 42 45 47 49 49 49 49 50 50 49 49 49 49 49 49 50 49 49 48 47 46 45 44 43 42 41 41 40 40 39 39 38 37 37
23 25 27 30 32 34 35 36 36 38 39 43 44 46 48 48 48 48 48 49 49 49 49 49 49 50 49 49 49 49 48 46 45 44 43 42 41 40 40 39 39 39 38 37
20 22 23 27 30 32 33 34 34 35 37 40 40 43 46 46 46 46 47 48 48 48 48 48 49 49 49 49 49 49 48 47 46 45 44 43 42 41 40 40 39 39 38 38
18 21 22 25 28 31 33 33 33 34 36 37 37 39 41 43 44 44 45 46 47 48 48 48 48 49 49 50 50 49 48 47 46 45 44 44 43 42 41 40 40 39 39 38
17 20 21 24 26 29 31 32 31 32 33 34 35 36 39 39 41 42 44 45 46 47 48 48 48 48 49 49 49 48 48 47 47 46 45 45 44 43 42 41 41 40 39 38
16 18 19 21 24 27 28 29 29 30 32 34 35 35 36 37 39 40 41 43 44 46 47 47 48 48 48 48 48 48 48 48 47 47 46 45 45 44 43 41 41 40 40 40
16 16 18 20 22 23 26 29 29 29 30 31 34 35 35 36 36 36 37 39 41 43 45 45 46 47 47 47 48 48 49 48 47 46 46 45 44 43 42 42 41 41 40 40
16 17 17 19 20 22 24 27 28 28 28 29 31 32 34 35 34 34 34 36 38 40 42 43 44 45 46 46 47 47 47 47 47 46 45 45 45 44 43 42 41 41 41 41
17 18 18 19 21 22 24 26 27 28 28 28 29 30 30 32 32 33 33 34 36 38 39 41 42 43 44 45 45 46 46 45 46 45 45 45 44 44 43 42 42 42 41 41
16 18 19 19 19 21 23 25 26 26 28 29 29 28 28 30 31 32 33 34 35 36 37 39 41 42 42 43 43 44 45 44 44 44 44 44 44 43 43 42 42 42 42 42
16 17 18 19 19 19 21 23 24 26 27 28 27 29 29 29 30 31 32 33 35 35 36 37 39 41 41 41 41 41 43 43 43 43 43 43 43 43 43 42 41 41 41 41
17 17 18 19 20 20 21 22 24 26 28 29 29 28 28 29 29 30 31 32 33 35 35 36 38 39 40 40 40 40 40 41 42 42 42 42 42 42 41 41 40 39 39 39
16 17 17 18 20 21 22 22 23 26 28 29 30 28 28 29 29 30 31 32 32 34 35 36 37 38 39 40 40 39 39 39 40 40 41 41 41 41 40 40 40 39 38 38
16 17 17 18 19 21 22 23 24 25 26 29 29 29 29 29 29 30 31 31 32 33 34 35 37 37 38 38 39 39 38 38 38 38 39 39 40 40 40 40 39 38 38 37
15 16 18 19 20 20 21 22 24 25 26 27 27 27 28 28 28 29 30 31 32 32 32 33 35 37 37 38 38 38 38 37 37 37 37 38 38 39 39 39 38 38 37 37
15 16 16 16 18 19 20 21 23 25 26 27 27 27 26 27 27 27 29 30 31 32 33 34 34 36 37 37 38 38 37 37 37 37 37 37 37 38 38 37 37 36 36 36
16 16 16 16 17 18 19 20 21 23 24 26 26 26 26 25 26 26 27 28 29 29 31 32 33 34 35 37 37 38 37 37 37 37 37 37 37 37 37 37 36 35 35 36
16 16 17 17 17 17 19 20 21 22 23 24 24 25 25 25 25 25 25 25 26 27 28 29 30 31 32 34 35 36 36 36 36 36 36 36 36 36 36 36 36 35 35 35
16 17 17 17 18 18 19 20 21 21 22 23 24 24 24 24 24 24 24 25 25 26 27 27 27 28 29 31 32 33 34 34 35 35 35 36 36 36 36 36 36 36 35 35
17 17 18 18 17 18 18 19 20 20 21 21 22 23 23 23 23 23 24 25 25 25 25 26 26 27 28 29 31 32 32 33 34 34 35 35 35 35 35 36 36 36 35 35
17 18 18 18 18 18 18 19 18 19 19 20 21 22 22 23 23 23 23 23 23 23 24 25 26 26 27 28 29 31 32 32 33 33 33 34 35 35 35 35 35 35 35 36
17 18 18 18 18 18 18 19 19 18 18 18 19 20 21 21 22 22 23 23 23 23 23 24 26 26 27 27 28 30 30 31 32 32 32 32 33 33 34 34 34 35 35 35
Wind_Direction
226 226 226 227 230 232 233 234 235 236 236 237 238 237 235 235 235 234 233 234 234 235 235 235 235 236 237 238 239 241 242 243 245 246 248 249 251 253 254 256 258 260 263 265
226 227 227 227 228 230 232 234 235 236 236 237 238 237 236 235 235 235 234 234 234 235 235 235 236 236 237 239 240 241 242 244 245 247 248 249 250 252 254 256 257 260 262 265
228 227 227 227 228 230 232 234 236 237 237 237 237 237 236 235 235 235 235 235 235 235 235 236 236 236 237 238 240 241 242 244 245 247 248 249 250 252 254 255 257 260 262 265
229 228 230 230 229 231 232 233 237 238 239 238 238 239 235 236 236 236 236 236 236 236 237 237 237 237 238 239 240 241 242 244 245 247 248 249 250 251 253 255 258 260 263 266
232 230 232 232 232 232 233 234 237 237 238 239 239 240 237 237 236 236 236 237 237 237 237 237 237 237 238 239 240 242 243 244 245 247 248 249 250 251 253 255 258 260 263 265
236 235 236 234 232 233 234 235 237 237 238 240 240 242 240 239 237 236 237 237 237 237 237 237 237 238 238 239 240 242 243 244 245 246 247 248 249 251 252 255 257 260 262 264
237 236 235 234 233 232 233 234 236 238 238 240 240 243 242 240 240 237 236 237 237 237 237 238 238 238 238 239 240 242 243 243 244 245 247 248 249 250 252 255 257 259 261 263
244 240 238 236 235 234 233 235 238 240 241 241 240 241 241 241 241 239 237 237 237 237 237 238 238 238 239 239 240 241 242 243 244 245 247 248 249 250 252 254 257 258 261 263
252 245 242 241 238 236 234 234 236 241 244 244 241 241 243 242 242 241 240 238 238 238 238 238 238 238 238 239 239 240 241 242 243 245 247 248 249 250 252 254 256 258 260 262
253 247 241 241 237 235 234 233 234 237 242 243 242 242 244 244 244 244 243 240 239 239 239 239 238 238 238 238 239 239 240 241 243 245 246 248 249 251 253 254 256 259 261 263
254 249 241 238 236 234 233 233 235 237 239 242 243 243 244 245 245 245 244 242 240 239 239 238 237 237 238 238 238 239 239 240 242 244 245 246 248 250 252 254 256 258 260 262
255 249 243 240 238 237 235 236 236 239 239 239 242 243 245 247 246 245 243 241 240 239 238 238 236 236 237 238 238 239 239 241 242 243 244 246 248 250 251 253 255 257 259 262
258 251 247 244 242 240 238 236 237 239 239 238 241 244 244 247 246 245 243 242 240 239 238 238 237 236 237 238 238 239 240 241 242 242 243 245 247 249 251 252 254 257 259 262
260 253 248 249 248 243 240 239 239 240 238 237 239 242 245 245 244 243 242 241 241 240 240 239 237 236 236 238 238 238 239 240 241 242 243 245 247 249 250 252 254 257 260 262
264 259 253 251 252 248 246 243 242 241 240 239 240 242 243 244 243 243 241 240 240 240 240 240 238 236 235 236 237 238 239 240 240 241 243 245 246 248 250 251 254 256 259 261
269 267 261 254 251 249 247 246 245 242 239 239 241 242 242 243 242 242 241 241 241 241 240 240 239 237 235 235 237 238 239 239 240 241 242 244 245 247 249 250 252 255 258 261
275 271 267 261 256 253 250 247 244 241 241 242 245 245 244 244 244 244 243 243 242 242 241 239 237 237 236 235 236 238 239 239 240 241 242 243 245 246 247 249 251 255 258 260
279 274 268 265 260 257 254 251 247 244 243 244 246 247 246 245 244 244 244 244 243 242 241 240 238 236 236 236 236 237 238 239 240 240 241 243 245 246 247 249 251 254 256 259
285 278 273 268 264 261 257 255 250 246 244 245 247 246 245 245 244 242 243 244 244 242 240 239 238 237 236 235 236 237 238 239 240 240 241 243 245 247 248 249 251 254 256 259
292 285 278 275 269 265 260 258 254 250 248 246 248 247 245 244 244 241 243 243 243 242 242 240 240 239 237 236 236 237 238 239 240 241 242 243 245 247 248 249 251 253 256 259
295 288 281 277 274 270 266 263 258 254 252 250 251 250 248 247 246 243 242 242 243 243 242 240 240 239 238 237 236 237 239 240 240 241 243 244 246 247 247 248 250 253 256 259
296 291 286 281 278 274 270 265 262 258 254 252 250 249 249 248 246 244 243 242 242 242 241 240 238 236 237 237 237 237 239 240 240 242 243 244 245 245 246 248 250 253 257 260
293 290 285 283 279 275 272 268 264 261 257 254 251 250 249 247 245 243 243 242 241 240 240 238 236 235 235 236 236 236 238 240 241 242 244 244 244 244 246 247 250 253 256 260
293 288 285 284 279 274 270 268 264 260 257 254 253 251 249 247 245 244 243 241 239 238 237 235 233 234 235 236 236 236 238 239 242 243 243 244 244 245 247 248 251 254 256 260
297 291 287 283 278 273 268 266 265 263 258 253 251 251 250 248 245 243 242 239 237 235 234 233 233 234 235 236 237 238 239 239 241 243 244 245 245 246 248 250 252 254 256 260
299 296 290 284 279 275 269 265 264 263 259 254 252 250 248 246 244 244 243 240 238 236 235 234 235 236 236 237 238 239 239 240 241 242 243 245 246 247 248 250 252 254 258 262
Height
5592 5598 5605 5613 5620 5627 5632 5638 5643 5651 5655 5660 5666 5673 5680 5686 5691 5697 5702 5708 5713 5719 5725 5730 5735 5740 5744 5749 5754 5757 5761 5765 5768 5771 5775 5777 5780 5782 5784 5785 5787 5789 5790 5791
5587 5593 5601 5606 5612 5617 5622 5628 5634 5640 5645 5650 5656 5662 5669 5675 5681 5687 5692 5698 5704 5710 5715 5721 5726 5731 5736 5741 5745 5749 5753 5757 5760 5764 5767 5769 5772 5774 5777 5778 5780 5781 5783 5784
5582 5590 5594 5599 5604 5609 5615 5620 5626 5631 5637 5641 5646 5652 5659 5666 5671 5676 5682 5688 5694 5700 5706 5712 5717 5722 5727 5732 5736 5740 5744 5748 5752 5755 5758 5761 5764 5767 5769 5771 5772 5774 5775 5776
5577 5583 5587 5592 5597 5602 5608 5613 5618 5623 5627 5632 5637 5641 5650 5655 5661 5667 5673 5679 5685 5691 5696 5702 5707 5713 5718 5722 5727 5731 5735 5739 5743 5747 5750 5753 5756 5759 5761 5763 5765 5766 5768 5768
5573 5578 5582 5586 5591 5596 5601 5606 5611 5615 5619 5623 5628 5632 5640 5644 5650 5657 5663 5670 5676 5681 5687 5692 5697 5703 5708 5713 5717 5722 5726 5730 5734 5738 5741 5745 5748 5751 5753 5755 5757 5758 5760 5761
5570 5573 5576 5580 5585 5589 5594 5599 5603 5606 5610 5614 5619 5623 5629 5634 5641 5648 5654 5660 5666 5671 5676 5682 5687 5693 5698 5703 5708 5712 5717 5721 5725 5729 5732 5736 5739 5742 5744 5746 5748 5750 5751 5752
5565 5568 5571 5574 5578 5582 5587 5591 5595 5598 5600 5606 5612 5614 5620 5627 5632 5638 5644 5650 5655 5661 5666 5672 5677 5682 5688 5693 5697 5702 5707 5711 5715 5719 5723 5726 5729 5733 5736 5738 5740 5742 5743 5744
5561 5564 5566 5569 5572 5576 5580 5584 5589 5592 5595 5600 5604 5607 5613 5619 5623 5629 5634 5640 5645 5650 5656 5661 5667 5672 5677 5682 5687 5692 5697 5701 5705 5709 5713 5717 5720 5724 5726 5729 5731 5733 5734 5735
5557 5560 5562 5564 5567 5571 5574 5578 5583 5586 5589 5592 5596 5601 5606 5610 5615 5619 5625 5630 5635 5640 5646 5651 5656 5661 5666 5671 5676 5681 5686 5691 5696 5700 5703 5707 5711 5714 5717 5720 5722 5724 5725 5727
5553 5556 5558 5559 5562 5565 5570 5573 5577 5579 5582 5585 5590 5594 5599 5602 5607 5611 5615 5620 5625 5630 5635 5640 5645 5651 5656 5661 5666 5671 5676 5681 5685 5690 5694 5697 5701 5704 5707 5710 5712 5714 5716 5717
5550 5552 5554 5555 5557 5560 5564 5567 5570 5573 5576 5580 5583 5589 5591 5594 5599 5603 5607 5610 5615 5620 5625 5630 5635 5640 5645 5650 5655 5660 5665 5670 5675 5679 5683 5687 5691 5695 5698 5701 5703 5705 5707 5708
5547 5548 5550 5552 5554 5556 5559 5561 5565 5568 5571 5574 5577 5584 5583 5586 5590 5594 5598 5601 5606 5610 5615 5619 5625 5630 5635 5640 5645 5650 5655 5660 5665 5669 5673 5678 5681 5685 5688 5691 5693 5695 5697 5698
5543 5545 5546 5548 5551 5552 5554 5556 5559 5562 5565 5568 5571 5577 5577 5579 5583 5586 5590 5593 5597 5601 5605 5610 5615 5620 5625 5630 5635 5640 5645 5649 5654 5659 5663 5667 5671 5675 5678 5681 5683 5685 5687 5689
5540 5541 5543 5544 5545 5547 5549 5552 5554 5556 5558 5561 5564 5567 5570 5572 5575 5578 5582 5585 5589 5593 5597 5601 5605 5610 5616 5621 5626 5630 5635 5640 5644 5649 5653 5657 5661 5665 5668 5671 5673 5676 5677 5679
5536 5537 5538 5539 5541 5542 5544 5547 5549 5551 5553 5556 5558 5560 5563 5565 5568 5570 5574 5577 5581 5584 5588 5592 5596 5601 5606 5611 5616 5621 5626 5630 5635 5639 5643 5648 5652 5655 5658 5661 5664 5666 5668 5669
5533 5533 5534 5536 5536 5538 5539 5541 5543 5545 5547 5550 5552 5554 5556 5558 5560 5563 5566 5569 5572 5576 5579 5583 5587 5592 5597 5602 5607 5612 5617 5621 5625 5630 5634 5638 5642 5645 5648 5651 5654 5656 5658 5659
5529 5529 5530 5531 5532 5533 5535 5537 5538 5540 5542 5544 5545 5548 5549 5551 5554 5556 5558 5561 5564 5567 5571 5574 5579 5583 5588 5593 5598 5603 5608 5612 5616 5620 5624 5628 5632 5635 5639 5641 5644 5646 5648 5649
5525 5525 5525 5526 5527 5528 5532 5531 5532 5534 5536 5537 5539 5541 5543 5545 5547 5549 5551 5553 5557 5559 5563 5566 5570 5575 5579 5584 5589 5594 5599 5603 5607 5611 5615 5619 5622 5626 5629 5632 5635 5637 5638 5640
5522 5521 5521 5521 5521 5522 5525 5525 5526 5528 5530 5531 5532 5534 5536 5538 5540 5542 5544 5547 5549 5552 5555 5558 5562 5566 5571 5575 5580 5585 5590 5594 5598 5602 5606 5610 5613 5616 5619 5622 5625 5627 5629 5630
5518 5517 5517 5516 5516 5517 5520 5519 5520 5522 5524 5525 5526 5528 5529 5531 5534 5537 5538 5540 5542 5545 5548 5551 5554 5558 5563 5567 5572 5577 5581 5585 5589 5593 5597 5600 5603 5607 5610 5613 5615 5617 5619 5621
5515 5514 5513 5512 5512 5512 5514 5514 5515 5518 5519 5519 5520 5521 5523 5525 5527 5529 5531 5533 5535 5538 5540 5543 5547 5550 5554 5559 5563 5568 5572 5576 5581 5584 5588 5591 5594 5597 5600 5603 5606 5608 5610 5612
5511 5510 5509 5509 5508 5511 5508 5508 5510 5511 5511 5512 5513 5515 5517 5519 5520 5522 5524 5526 5529 5531 5534 5536 5539 5543 5546 5551 5555 5560 5564 5568 5572 5575 5579 5582 5585 5588 5591 5594 5597 5599 5601 5603
5507 5506 5505 5505 5506 5504 5503 5503 5504 5504 5505 5506 5508 5509 5511 5513 5515 5516 5518 5520 5523 5525 5528 5530 5533 5536 5539 5543 5547 5551 5555 5559 5563 5566 5570 5573 5576 5579 5582 5585 5588 5590 5592 5594
5503 5502 5501 5500 5500 5499 5498 5498 5498 5499 5499 5500 5502 5503 5505 5507 5509 5511 5512 5515 5517 5519 5522 5524 5527 5530 5533 5536 5540 5544 5547 5551 5555 5558 5561 5564 5567 5570 5573 5576 5578 5581 5583 5584
5499 5497 5496 5495 5495 5494 5494 5493 5493 5494 5494 5495 5496 5497 5499 5501 5503 5505 5507 5509 5511 5514 5516 5519 5522 5524 5527 5530 5533 5537 5540 5544 5547 5550 5553 5556 5558 5561 5564 5567 5569 5572 5573 5575
5495 5493 5492 5491 5490 5489 5489 5489 5489 5489 5489 5490 5491 5492 5494 5495 5497 5499 5501 5504 5506 5508 5511 5513 5516 5519 5521 5524 5527 5530 5533 5536 5539 5542 5545 5548 5550 5553 5555 5558 5560 5562 5564 5565